Terminal Aerodrome Forecast
Issued by NWS Cleveland, OH

Home | Current Version | Previous Version | Graphics & Text | Print | Product List | Glossary On
Versions: 1 2 3 4 5 6 7 8 9 10 11 12 13 14 15 16 17 18 19 20
000
FTUS41 KCLE 270900 AAA
TAFYNG
TAF AMD
KYNG 270920Z 2709/2806 31010KT P6SM OVC045
     FM271700 31010KT P6SM OVC025
     FM280300 31009KT P6SM OVC100=

USA.gov is the U.S. government's official web portal to all federal, state and local government web resources and services.